{"data":{"norad_id":55474,"intl_designator":"2023-015AB","name":"STARLINK-5689","alt_names":[],"object_type":"PAYLOAD","status":"ACTIVE","operator":null,"country":"US","launch_date":"2023-02-02","launch_site_code":"AFETR","launch_vehicle":null,"mission":null,"orbit_class":"UNKNOWN","rcs_meters":null,"size_class":null,"mass_kg":null,"dimensions":null,"purposes":["comms"],"wikipedia_slug":null,"has_3d_model":false,"image_url":null,"decayed_at":null,"tle_current":{"epoch":"2026-05-24T14:50:05.611200Z","epoch_age_seconds":101367,"freshness":"FRESH","line1":"1 55474U 23015AB  26144.61812050 -.00002377  00000+0 -76878-4 0  9996","line2":"2 55474  43.0037 271.2607 0001484 268.4810  91.5872 15.27575741182204","mean_motion":15.27575741,"eccentricity":0.0001484,"inclination_deg":43.0037,"raan_deg":271.2607,"arg_perigee_deg":268.481,"mean_anomaly_deg":91.5872,"bstar":-7.6878e-5,"rev_number":18220,"period_min":94.26701153668,"perigee_km":482.04364713825,"apogee_km":484.08005095665,"semimajor_km":6861.1988490474,"source":"CELESTRAK","updated_at":"2026-05-25T13:38:17.807792Z"}}}